Location: Drocourt
(49.0571°N, 1.7669°E)
Time: 14:29:59
(UTC+00:00)

SR - Pass Details

Date: 15 April 2024
Orbit: 579 x 859 km, 66.7° (Epoch: 28 May)

Event Time Altitude Azimuth Distance (km) Brightness Sun altitude
Rises 04:07:13 0° 238° (WSW) 3,344 - -9.0°
Reaches altitude 10° 04:09:52 10° 245° (WSW) 2,379 - -8.6°
Exits shadow 04:10:00 11° 246° (WSW) 2,327 ? -8.6°
Maximum altitude 04:15:00 41° 315° (NW) 1,106 ? -7.9°
Drops below altitude 10° 04:19:49 10° 26° (NNE) 2,218 ? -7.2°
Sets 04:22:13 0° 34° (NNE) 3,094 ? -6.8°
